Location: Eimen
(51.8766°N, 9.7806°E)
Time: 17:04:24
(UTC+00:00)

Cosmos 1741 Rocket - Pass Details

Date: 23 May 2024
Orbit: 758 x 781 km, 74.0° (Epoch: 24 June)

Event Time Altitude Azimuth Distance (km) Brightness Sun altitude
Exits shadow 01:51:25 13° 212° (SSW) 2,084 5.6 -10.1°
Maximum altitude 01:56:04 73° 297° (WNW) 805 4.1 -9.7°
Drops below altitude 10° 02:01:21 10° 23° (NNE) 2,327 7.9 -9.2°
Sets 02:03:46 0° 25° (NNE) 3,261 9.1 -8.9°
